Weather History for Oceana NAS, VA

Change the Weather History Date:

Sunday, October 6, 2013

  Actual Average Record
Temperature  
Mean Temperature 75 °F -  
Max Temperature 86 °F 71 °F 87 °F (1997)
Min Temperature 66 °F 54 °F 46 °F (2010)
Cooling Degree Days 10    
Growing Degree Days 25 (Base 50)    
Moisture  
Dew Point 67 °F    
Average Humidity 77    
Maximum Humidity 96    
Minimum Humidity 55    
Precipitation  
Precipitation 0.00 in - - ()
Sea Level Pressure  
Sea Level Pressure 30.04 in    
Wind  
Wind Speed 8 mph (South)    
Max Wind Speed 17 mph    
Max Gust Speed 23 mph    
Visibility 10 miles    
Events      
Averages and records for this station are not official NWS values.
T = Trace of Precipitation, MM = Missing Value Source: NWS Daily Summary

Daily Weather History Graph

Daily Weather History Graph

Search for Another Location

Airport:

Trip Planner

Search our weather history database for the weather conditions in past years. The results will help you decide how hot, cold, wet, or windy it might be!

Date:

Astronomy

Oct. 06, 2013 Rise Set
Actual Time 7:03 AM EDT 6:39 PM EDT
Civil Twilight 6:37 AM EDT 7:05 PM EDT
Nautical Twilight 6:07 AM EDT 7:35 PM EDT
Astronomical Twilight 5:37 AM EDT 8:05 PM EDT
Moon 8:42 AM EDT (10/6) 7:41 PM EDT (10/6)
Length of Visible Light 12h 27m
Length of Day
11h 35m
Waxing Crescent, 3% of the Moon is Illuminated
Oct 6
Waxing Crescent
Oct 11
First Quarter
Oct 18
Full
Oct 26
Last Quarter
Nov 3
New

Hourly Weather History & Observations

Time (EDT) Temp. Heat Index Dew Point Humidity Pressure Visibility Wind Dir Wind Speed Gust Speed Precip Events Conditions
12:56 AM 73.0 °F - 64.0 °F 73% 30.06 in 10.0 mi SW 8.1 mph - N/A   Partly Cloudy
1:56 AM 71.1 °F - 64.0 °F 78% 30.06 in 10.0 mi SW 6.9 mph - N/A   Partly Cloudy
2:56 AM 70.0 °F - 64.9 °F 84% 30.05 in 10.0 mi SW 5.8 mph - N/A   Partly Cloudy
3:56 AM 70.0 °F - 64.9 °F 84% 30.04 in 10.0 mi SW 5.8 mph - N/A   Partly Cloudy
4:56 AM 66.9 °F - 64.9 °F 93% 30.05 in 10.0 mi SW 4.6 mph - N/A   Clear
5:56 AM 68.0 °F - 66.0 °F 93% 30.06 in 10.0 mi SSW 6.9 mph - N/A   Clear
6:56 AM 68.0 °F - 66.0 °F 93% 30.06 in 10.0 mi SW 5.8 mph - N/A   Partly Cloudy
7:56 AM 68.0 °F - 66.9 °F 96% 30.08 in 10.0 mi SW 4.6 mph - N/A   Partly Cloudy
8:56 AM 72.0 °F - 69.1 °F 91% 30.08 in 10.0 mi SW 8.1 mph - N/A   Partly Cloudy
9:56 AM 77.0 °F - 69.1 °F 76% 30.09 in 10.0 mi SW 8.1 mph - N/A   Scattered Clouds
10:56 AM 80.1 °F 82.9 °F 69.1 °F 69% 30.08 in 10.0 mi SSW 6.9 mph - N/A   Scattered Clouds
11:56 AM 82.9 °F 85.8 °F 68.0 °F 60% 30.07 in 10.0 mi Variable 5.8 mph - N/A   Scattered Clouds
12:56 PM 82.9 °F 85.0 °F 66.0 °F 56% 30.05 in 10.0 mi SW 11.5 mph - N/A   Scattered Clouds
1:56 PM 84.9 °F 87.6 °F 66.9 °F 55% 30.03 in 10.0 mi SSE 11.5 mph - N/A   Scattered Clouds
2:56 PM 84.0 °F 86.5 °F 66.9 °F 56% 30.02 in 10.0 mi SSE 15.0 mph - N/A   Scattered Clouds
3:56 PM 82.0 °F 84.5 °F 66.9 °F 60% 30.01 in 10.0 mi SE 17.3 mph 23.0 mph N/A   Scattered Clouds
4:56 PM 80.1 °F 82.7 °F 68.0 °F 67% 30.00 in 10.0 mi SE 16.1 mph - N/A   Scattered Clouds
5:56 PM 78.1 °F - 68.0 °F 71% 30.00 in 10.0 mi SSE 13.8 mph - N/A   Partly Cloudy
6:56 PM 75.9 °F - 68.0 °F 76% 30.01 in 10.0 mi SSE 10.4 mph - N/A   Partly Cloudy
7:56 PM 75.0 °F - 68.0 °F 79% 30.01 in 10.0 mi SSE 11.5 mph - N/A   Partly Cloudy
8:56 PM 73.9 °F - 68.0 °F 82% 30.02 in 10.0 mi SSE 9.2 mph - N/A   Partly Cloudy
9:56 PM 73.0 °F - 69.1 °F 87% 30.03 in 10.0 mi SSE 8.1 mph - N/A   Partly Cloudy
10:56 PM 73.9 °F - 69.1 °F 85% 30.01 in 10.0 mi South 5.8 mph - N/A   Mostly Cloudy
11:56 PM 73.0 °F - 70.0 °F 90% 30.00 in 10.0 mi SSE 8.1 mph - N/A   Mostly Cloudy